Погода в Лигатне

Латвия     57°14′11″N   25°02′27″E
темп.,
°C
ветер,
м/с
пор.,
м/с
влажн.,
%
обл.,
%
осадки,
мм/ч
давл.,
гПа
погр.,
м
21 июня, пн
пн2100:00+21юв26820 0.1 1015105
03:00+20ююв39891 0.6 1015234
06:00+20ююв310934 0.0 1015257
09:00+26ю47655 0.0 1014497
12:00+30ююв58495 0.0 10141527
15:00+32ю57360 0.0 10142059
18:00+32ю46390 0.0 10132193
21:00+26юв38700 0.0 1013200
22 июня, вт
вт2200:00+23ююв311695 0.0 1013358
03:00+20юв39820 0.0 1013197
06:00+20юв3108561 0.0 1012254
09:00+25ююв486633 0.0 1012805
12:00+29ю57511 0.0 10121696
15:00+28ю4659100 0.4 10121171
18:00+27ю476254 0.4 1012993
21:00+24ююв27775 0.4 1012291
23 июня, ср
ср2300:00+21ю258910 0.0 1014104
03:00+19ю23951 0.0 101447
06:00+20ююв25906 0.0 1015131
09:00+26ю24665 0.0 1015600
12:00+30ю35497 0.0 10151640
15:00+30ююз3550100 0.1 10151433
18:00+27з4563100 0.3 1015714
21:00+19ссз1298100 5.4 1017107
24 июня, чт
чт2400:00+18з1198100 0.7 101733
03:00+16зсз129999 0.7 101780
06:00+18ююз1199100 0.7 101880
09:00+18зсз2398100 2.4 1017238
12:00+21з238390 0.2 1018623
15:00+26зсз33540 0.2 10181176
18:00+25зсз32550 0.0 1017855
21:00+20с23740 0.0 101786
25 июня, пт
пт2500:00+17ссв22830 0.1 101728
03:00+16св228313 0.1 101740
06:00+16св23811 0.0 101686
09:00+23св23614 0.0 1015383
12:00+28всв235369 0.0 10141338
15:00+30юв344870 0.1 10122157
18:00+28ююв376096 0.0 1011520
21:00+24зюз118696 0.3 100915